FDX6149 SKBO-SBGR

Flight info

Callsign FDX6149
Flight time N/A
Altitude 33000
Route POVSO5U POVSO UP527 ORIBO UL201 OBEBA DCT ASBIV/N0486F350 DCT RODAD DCT OBLUG UZ42 ZARES
Aircraft MD11/H-SDE1E2E3FGHIJ2J3J4J5M1RWXY/LB1D1

Departure

Time N/A
Airport El Dorado International Airport (SKBO)

Arrival

Time 2026-05-07 23:24
Airport São Paulo/Guarulhos–Governor André Franco Montoro International Airport (SBGR)
Time Latitude Longitude Altitude Speed Heading
2026-05-07 22:16 -17.70757 -53.10832 34945 ft 489 kts 143°
2026-05-07 22:17 -17.75878 -53.06135 34964 ft 489 kts 143°
2026-05-07 22:17 -17.81010 -53.01425 34952 ft 490 kts 143°
2026-05-07 22:18 -17.88705 -52.94365 34969 ft 490 kts 143°
2026-05-07 22:19 -17.93836 -52.89655 34955 ft 489 kts 143°
2026-05-07 22:19 -17.98964 -52.84945 34963 ft 489 kts 143°
2026-05-07 22:20 -18.04053 -52.80266 34959 ft 489 kts 143°
2026-05-07 22:20 -18.09183 -52.75546 34959 ft 489 kts 143°
2026-05-07 22:21 -18.14297 -52.70835 34953 ft 488 kts 143°
2026-05-07 22:21 -18.19405 -52.66128 34959 ft 488 kts 143°
2026-05-07 22:22 -18.24511 -52.61419 34947 ft 490 kts 143°
2026-05-07 22:22 -18.29634 -52.56690 34953 ft 490 kts 143°
2026-05-07 22:23 -18.34758 -52.51954 34942 ft 490 kts 143°
2026-05-07 22:23 -18.39868 -52.47216 34939 ft 489 kts 143°
2026-05-07 22:24 -18.44979 -52.42479 34963 ft 490 kts 143°
2026-05-07 22:24 -18.50097 -52.37737 34946 ft 490 kts 143°
2026-05-07 22:25 -18.55217 -52.32991 34945 ft 490 kts 143°
2026-05-07 22:25 -18.60299 -52.28276 34943 ft 490 kts 143°
2026-05-07 22:26 -18.65412 -52.23529 34943 ft 489 kts 143°
2026-05-07 22:26 -18.70528 -52.18775 34941 ft 491 kts 143°
2026-05-07 22:27 -18.75650 -52.14011 34936 ft 491 kts 143°
2026-05-07 22:27 -18.80770 -52.09244 34936 ft 491 kts 143°
2026-05-07 22:28 -18.85889 -52.04475 34933 ft 491 kts 143°
2026-05-07 22:28 -18.91006 -51.99704 34930 ft 491 kts 143°
2026-05-07 22:29 -18.96121 -51.94930 34933 ft 491 kts 143°
2026-05-07 22:29 -19.01238 -51.90141 34928 ft 491 kts 143°
2026-05-07 22:30 -19.06352 -51.85350 34931 ft 491 kts 143°
2026-05-07 22:30 -19.11467 -51.80561 34926 ft 492 kts 143°
2026-05-07 22:31 -19.16594 -51.75761 34928 ft 492 kts 143°
2026-05-07 22:31 -19.21710 -51.70965 34924 ft 491 kts 143°
2026-05-07 22:32 -19.26792 -51.66198 34927 ft 492 kts 143°
2026-05-07 22:32 -19.31913 -51.61390 34929 ft 492 kts 143°
2026-05-07 22:33 -19.37039 -51.56573 34924 ft 493 kts 143°
2026-05-07 22:33 -19.42165 -51.51751 34925 ft 492 kts 143°
2026-05-07 22:34 -19.47281 -51.46934 34922 ft 492 kts 143°
2026-05-07 22:34 -19.52393 -51.42118 34931 ft 492 kts 143°
2026-05-07 22:35 -19.57515 -51.37288 34920 ft 493 kts 143°
2026-05-07 22:35 -19.62633 -51.32450 34912 ft 493 kts 143°
2026-05-07 22:36 -19.67746 -51.27607 34919 ft 493 kts 143°
2026-05-07 22:36 -19.72861 -51.22766 34916 ft 493 kts 143°
2026-05-07 22:37 -19.77969 -51.17932 34915 ft 493 kts 143°
2026-05-07 22:37 -19.83055 -51.13115 34916 ft 493 kts 143°
2026-05-07 22:38 -19.88174 -51.08261 34914 ft 493 kts 143°
2026-05-07 22:38 -19.93295 -51.03402 34919 ft 494 kts 143°
2026-05-07 22:39 -19.98414 -50.98539 34915 ft 494 kts 143°
2026-05-07 22:39 -20.03539 -50.93667 34919 ft 494 kts 143°
2026-05-07 22:40 -20.07799 -50.89613 34919 ft 494 kts 143°
2026-05-07 22:40 -20.12919 -50.84737 34918 ft 494 kts 143°
2026-05-07 22:41 -20.18032 -50.79863 34921 ft 493 kts 143°
2026-05-07 22:41 -20.23140 -50.74987 34922 ft 493 kts 142°
2026-05-07 22:42 -20.28246 -50.70097 34923 ft 493 kts 142°
2026-05-07 22:42 -20.33353 -50.65208 34925 ft 493 kts 142°
2026-05-07 22:43 -20.38459 -50.60323 34930 ft 493 kts 142°
2026-05-07 22:43 -20.43561 -50.55437 34931 ft 493 kts 142°
2026-05-07 22:44 -20.48665 -50.50546 34931 ft 493 kts 142°
2026-05-07 22:44 -20.53765 -50.45653 34927 ft 493 kts 142°
2026-05-07 22:45 -20.58865 -50.40756 34932 ft 493 kts 142°
2026-05-07 22:45 -20.63960 -50.35858 34930 ft 493 kts 142°
2026-05-07 22:46 -20.69050 -50.30960 34936 ft 493 kts 142°
2026-05-07 22:46 -20.74141 -50.26058 34936 ft 493 kts 142°
2026-05-07 22:47 -20.79206 -50.21176 34939 ft 493 kts 142°
2026-05-07 22:47 -20.84294 -50.16265 34935 ft 492 kts 142°
2026-05-07 22:48 -20.89368 -50.11350 34931 ft 492 kts 142°
2026-05-07 22:48 -20.94438 -50.06440 34935 ft 492 kts 142°
2026-05-07 22:49 -20.99517 -50.01525 34943 ft 492 kts 142°
2026-05-07 22:49 -21.04601 -49.96601 34938 ft 493 kts 142°
2026-05-07 22:50 -21.09676 -49.91680 34939 ft 491 kts 142°
2026-05-07 22:50 -21.14739 -49.86767 34941 ft 491 kts 142°
2026-05-07 22:51 -21.19804 -49.81848 34946 ft 492 kts 142°
2026-05-07 22:51 -21.24874 -49.76918 34943 ft 492 kts 142°
2026-05-07 22:52 -21.29933 -49.71995 34938 ft 491 kts 142°
2026-05-07 22:52 -21.34986 -49.67071 34943 ft 490 kts 142°
2026-05-07 22:53 -21.40042 -49.62142 34948 ft 492 kts 142°
2026-05-07 22:53 -21.45078 -49.57227 34947 ft 493 kts 142°
2026-05-07 22:54 -21.50143 -49.52263 34945 ft 493 kts 142°
2026-05-07 22:54 -21.55195 -49.47310 34947 ft 491 kts 142°
2026-05-07 22:55 -21.60238 -49.42370 34951 ft 491 kts 142°
2026-05-07 22:55 -21.65288 -49.37423 34952 ft 491 kts 142°
2026-05-07 22:56 -21.70341 -49.32467 34954 ft 491 kts 142°
2026-05-07 22:56 -21.75386 -49.27513 34951 ft 490 kts 142°
2026-05-07 22:57 -21.80420 -49.22564 34955 ft 490 kts 142°
2026-05-07 22:57 -21.85426 -49.17640 34955 ft 491 kts 142°
2026-05-07 22:58 -21.90459 -49.12684 34959 ft 491 kts 142°
2026-05-07 22:58 -21.95500 -49.07713 34968 ft 491 kts 142°
2026-05-07 22:59 -22.00523 -49.02755 34964 ft 489 kts 142°
2026-05-07 22:59 -22.05544 -48.97796 34967 ft 490 kts 143°
2026-05-07 23:00 -22.10562 -48.92825 34971 ft 490 kts 143°
2026-05-07 23:00 -22.15574 -48.87849 34975 ft 490 kts 142°
2026-05-07 23:01 -22.20590 -48.82875 34977 ft 490 kts 142°
2026-05-07 23:01 -22.25606 -48.77900 34975 ft 490 kts 142°
2026-05-07 23:02 -22.30624 -48.72919 34967 ft 490 kts 142°
2026-05-07 23:02 -22.35642 -48.67932 34968 ft 491 kts 143°
2026-05-07 23:03 -22.40670 -48.62929 34971 ft 491 kts 143°
2026-05-07 23:03 -22.45688 -48.57930 34971 ft 490 kts 143°
2026-05-07 23:04 -22.50698 -48.52936 34974 ft 490 kts 143°
2026-05-07 23:04 -22.55713 -48.47932 34975 ft 491 kts 143°
2026-05-07 23:05 -22.60705 -48.42884 34976 ft 493 kts 139°
2026-05-07 23:05 -22.64640 -48.36814 34623 ft 497 kts 118°
2026-05-07 23:05 -22.65832 -48.33307 34283 ft 497 kts 110°
2026-05-07 23:06 -22.66739 -48.29697 33838 ft 497 kts 108°
2026-05-07 23:06 -22.67609 -48.26066 33236 ft 497 kts 109°
2026-05-07 23:06 -22.68539 -48.22464 32677 ft 496 kts 110°
2026-05-07 23:06 -22.69545 -48.18896 32130 ft 495 kts 111°
2026-05-07 23:07 -22.70606 -48.15362 31593 ft 495 kts 111°
2026-05-07 23:07 -22.71705 -48.11829 31059 ft 496 kts 111°
2026-05-07 23:07 -22.72822 -48.08293 30519 ft 496 kts 111°
2026-05-07 23:07 -22.73921 -48.04747 29974 ft 497 kts 110°
2026-05-07 23:08 -22.74969 -48.01179 29316 ft 497 kts 109°
2026-05-07 23:08 -22.75990 -47.97601 28713 ft 497 kts 110°
2026-05-07 23:08 -22.77216 -47.94097 28121 ft 497 kts 115°
2026-05-07 23:08 -22.78687 -47.90717 27550 ft 495 kts 118°
2026-05-07 23:09 -22.80268 -47.87433 27150 ft 489 kts 120°
2026-05-07 23:09 -22.81876 -47.84204 26963 ft 485 kts 120°
2026-05-07 23:09 -22.83483 -47.80984 26919 ft 486 kts 120°
2026-05-07 23:09 -22.85081 -47.77751 26853 ft 486 kts 120°
2026-05-07 23:10 -22.86663 -47.74516 26806 ft 486 kts 120°
2026-05-07 23:10 -22.88235 -47.71275 26738 ft 485 kts 120°
2026-05-07 23:10 -22.89796 -47.68039 26677 ft 485 kts 119°
2026-05-07 23:10 -22.91358 -47.64793 26617 ft 484 kts 119°
2026-05-07 23:11 -22.92892 -47.61599 26551 ft 484 kts 119°
2026-05-07 23:11 -22.94455 -47.58348 26003 ft 486 kts 119°
2026-05-07 23:11 -22.96009 -47.55114 25438 ft 479 kts 120°
2026-05-07 23:11 -22.97591 -47.52002 24162 ft 466 kts 121°
2026-05-07 23:12 -22.99240 -47.49009 22897 ft 453 kts 122°
2026-05-07 23:12 -23.00875 -47.46133 21562 ft 445 kts 122°
2026-05-07 23:12 -23.02496 -47.43287 20263 ft 436 kts 121°
2026-05-07 23:12 -23.04067 -47.40460 19491 ft 437 kts 120°
2026-05-07 23:13 -23.05601 -47.37640 18740 ft 432 kts 119°
2026-05-07 23:13 -23.07117 -47.34848 17960 ft 426 kts 119°
2026-05-07 23:13 -23.08618 -47.32094 17139 ft 421 kts 119°
2026-05-07 23:13 -23.10110 -47.29371 16434 ft 413 kts 119°
2026-05-07 23:14 -23.11583 -47.26691 15840 ft 412 kts 119°
2026-05-07 23:14 -23.13058 -47.24010 15259 ft 413 kts 118°
2026-05-07 23:14 -23.14523 -47.21353 14708 ft 406 kts 119°
2026-05-07 23:14 -23.15965 -47.18735 14190 ft 402 kts 118°
2026-05-07 23:15 -23.17394 -47.16141 13650 ft 398 kts 118°
2026-05-07 23:15 -23.18810 -47.13569 13094 ft 395 kts 118°
2026-05-07 23:15 -23.20215 -47.11015 12583 ft 393 kts 118°
2026-05-07 23:15 -23.21613 -47.08471 12039 ft 391 kts 118°
2026-05-07 23:16 -23.23002 -47.05943 11540 ft 389 kts 118°
2026-05-07 23:16 -23.24383 -47.03429 11160 ft 385 kts 118°
2026-05-07 23:16 -23.25752 -47.00937 10968 ft 378 kts 118°
2026-05-07 23:16 -23.27062 -46.98556 10839 ft 356 kts 118°
2026-05-07 23:17 -23.28296 -46.96312 10699 ft 336 kts 118°
2026-05-07 23:17 -23.29464 -46.94187 10528 ft 319 kts 118°
2026-05-07 23:17 -23.30574 -46.92166 10364 ft 306 kts 118°
2026-05-07 23:17 -23.31670 -46.90161 10118 ft 310 kts 118°
2026-05-07 23:18 -23.32769 -46.88147 9612 ft 310 kts 118°
2026-05-07 23:18 -23.33870 -46.86134 9137 ft 308 kts 118°
2026-05-07 23:18 -23.34960 -46.84140 8650 ft 305 kts 118°
2026-05-07 23:18 -23.36042 -46.82163 8204 ft 303 kts 118°
2026-05-07 23:19 -23.37115 -46.80200 7742 ft 300 kts 118°
2026-05-07 23:19 -23.38174 -46.78260 7329 ft 297 kts 118°
2026-05-07 23:19 -23.39220 -46.76348 6981 ft 291 kts 118°
2026-05-07 23:19 -23.40254 -46.74461 6638 ft 290 kts 118°
2026-05-07 23:20 -23.41346 -46.72593 6292 ft 293 kts 120°
2026-05-07 23:20 -23.42473 -46.70756 5920 ft 289 kts 121°
2026-05-07 23:20 -23.43591 -46.68957 5557 ft 284 kts 121°
2026-05-07 23:20 -23.44678 -46.67215 5279 ft 269 kts 121°
2026-05-07 23:21 -23.45692 -46.65601 5073 ft 246 kts 121°
2026-05-07 23:21 -23.46607 -46.64076 4718 ft 235 kts 114°
2026-05-07 23:21 -23.47119 -46.62466 4372 ft 218 kts 89°
2026-05-07 23:21 -23.46975 -46.60879 4123 ft 207 kts 72°
2026-05-07 23:22 -23.46665 -46.59347 4075 ft 208 kts 72°
2026-05-07 23:22 -23.46331 -46.57807 4075 ft 209 kts 71°
2026-05-07 23:22 -23.45948 -46.56320 3901 ft 197 kts 69°
2026-05-07 23:22 -23.45577 -46.54981 3638 ft 176 kts 68°
2026-05-07 23:23 -23.45227 -46.53717 3470 ft 173 kts 69°
2026-05-07 23:23 -23.44890 -46.52483 3237 ft 171 kts 71°
2026-05-07 23:23 -23.44556 -46.51241 2992 ft 171 kts 73°
2026-05-07 23:23 -23.44229 -46.49999 2768 ft 170 kts 70°
2026-05-07 23:24 -23.43898 -46.48774 2520 ft 168 kts 72°
2026-05-07 23:24 -23.43591 -46.47632 2473 ft 133 kts 74°
2026-05-07 23:24 -23.43390 -46.46892 2473 ft 67 kts 73°
2026-05-07 23:24 -23.43309 -46.46590 2475 ft 31 kts 74°
2026-05-07 23:25 -23.43229 -46.46392 2474 ft 27 kts 54°
2026-05-07 23:25 -23.43112 -46.46256 2471 ft 23 kts 44°
2026-05-07 23:25 -23.43043 -46.46186 2471 ft 11 kts 43°
2026-05-07 23:25 -23.42997 -46.46142 2474 ft 3 kts 28°
2026-05-07 23:26 -23.42978 -46.46139 2474 ft 2 kts
2026-05-07 23:26 -23.42943 -46.46144 2473 ft 11 kts 348°
2026-05-07 23:26 -23.42804 -46.46189 2469 ft 27 kts 335°
2026-05-07 23:26 -23.42740 -46.46214 2471 ft 4 kts 347°
2026-05-07 23:27 -23.42660 -46.46234 2473 ft 10 kts 346°
2026-05-07 23:27 -23.42615 -46.46276 2468 ft 8 kts 287°
2026-05-07 23:27 -23.42627 -46.46334 2472 ft 8 kts 251°
2026-05-07 23:28 -23.42646 -46.46399 2472 ft 11 kts 252°
2026-05-07 23:28 -23.42674 -46.46499 2469 ft 17 kts 253°
2026-05-07 23:28 -23.42711 -46.46638 2475 ft 21 kts 253°
2026-05-07 23:28 -23.42755 -46.46801 2471 ft 23 kts 253°
2026-05-07 23:29 -23.42799 -46.46967 2472 ft 23 kts 253°
2026-05-07 23:29 -23.42844 -46.47128 2470 ft 22 kts 253°
2026-05-07 23:29 -23.42887 -46.47283 2471 ft 21 kts 253°
2026-05-07 23:29 -23.42928 -46.47433 2473 ft 20 kts 254°
2026-05-07 23:30 -23.42966 -46.47575 2470 ft 19 kts 253°
2026-05-07 23:30 -23.43001 -46.47707 2470 ft 17 kts 253°
2026-05-07 23:30 -23.43034 -46.47825 2471 ft 15 kts 253°
2026-05-07 23:30 -23.43062 -46.47931 2468 ft 14 kts 253°
2026-05-07 23:31 -23.43088 -46.48025 2472 ft 12 kts 253°
2026-05-07 23:31 -23.43111 -46.48110 2473 ft 11 kts 253°
2026-05-07 23:31 -23.43132 -46.48189 2474 ft 10 kts 253°
2026-05-07 23:31 -23.43153 -46.48264 2469 ft 10 kts 253°
2026-05-07 23:32 -23.43173 -46.48337 2472 ft 10 kts 253°
2026-05-07 23:32 -23.43168 -46.48398 2474 ft 6 kts 313°
2026-05-07 23:32 -23.43131 -46.48419 2470 ft 7 kts 338°
2026-05-07 23:32 -23.43079 -46.48437 2471 ft 9 kts 343°
2026-05-07 23:33 -23.43018 -46.48464 2472 ft 9 kts 321°
2026-05-07 23:33 -23.42999 -46.48526 2473 ft 9 kts 277°
2026-05-07 23:33 -23.42989 -46.48615 2469 ft 14 kts 276°
2026-05-07 23:33 -23.42980 -46.48728 2472 ft 10 kts 275°
2026-05-07 23:34 -23.42951 -46.48759 2470 ft 4 kts 358°
2026-05-07 23:34 -23.42929 -46.48760 2472 ft 2 kts 347°
2026-05-07 23:34 -23.42917 -46.48770 2473 ft 4 kts 321°
2026-05-07 23:34 -23.42905 -46.48806 2469 ft 5 kts 271°
2026-05-07 23:35 -23.42906 -46.48828 2469 ft 0 kts 271°